Regional Weather Roundup
Issued by NWS

Home | Current Version | Previous Version | Graphics & Text | Print | Product List | Glossary On
Versions: 1 2 3 4 5 6 7 8 9 10 11 12 13 14 15 16 17 18 19 20 21 22 23 24 25 26 27 28 29 30 31 32 33 34 35 36 37 38 39 40 41 42 43 44 45 46 47 48 49 50
000
ASUS43 KOAX 260402
RWRNE

WEATHER ROUNDUP FOR NEBRASKA
NATIONAL WEATHER SERVICE OMAHA NE
1100 PM CDT MON MAY 25 2015

NOTES: SATELLITE DATA IS BEING USED TO AUGMENT CLOUD COVER ABOVE
       12000 FEET.
       "FAIR" INDICATES FEW OR NO CLOUDS BELOW 12,000 FEET WITH NO
       SIGNIFICANT WEATHER AND/OR OBSTRUCTIONS TO VISIBILITY.

  * THESE STATIONS DO NOT REPORT WEATHER SUCH AS RAIN...SNOW OR FOG.

NEZ001>004-019>022-054>056-260500-
NEBRASKA PANHANDLE

CITY           SKY/WX    TMP DP  RH WIND       PRES   REMARKS
SCOTTSBLUFF    MOCLDY    50  49  96 NW5       29.94R
ALLIANCE       CLEAR     48  47  96 NW5       29.93R
CHADRON        CLOUDY    54  52  93 N3        29.93R
SIDNEY         MOCLDY    48  46  93 NW8       29.95R
$$

NEZ057>060-069>072-079>082-260500-
SOUTHWEST NEBRASKA

CITY           SKY/WX    TMP DP  RH WIND       PRES   REMARKS
NORTH PLATTE   CLOUDY    54  50  86 NW7       29.88R
IMPERIAL       CLOUDY    55  50  83 W8        29.91R
MCCOOK         PTCLDY    58  51  78 W12       29.84R
$$

NEZ005>010-023>029-035>040-094-260500-
NORTH CENTRAL NEBRASKA

CITY           SKY/WX    TMP DP  RH WIND       PRES   REMARKS
VALENTINE      CLOUDY    56  54  93 N6        29.89R
BROKEN BOW     PTCLDY    59  54  83 N17       29.84R
ORD            CLOUDY    61  57  87 N6        29.81R
$$

NEZ041-046>049-061>064-073>077-083>087-260500-
SOUTH CENTRAL NEBRASKA

CITY           SKY/WX    TMP DP  RH WIND       PRES   REMARKS
GRAND ISLAND   CLOUDY    62  57  83 S6        29.79R
HASTINGS       CLOUDY    63  57  81 S5        29.79R
KEARNEY *      CLOUDY    64  50  59 W8        29.81R
$$

NEZ011>018-030>034-042>045-260500-
NORTHEAST NEBRASKA

CITY           SKY/WX    TMP DP  RH WIND       PRES   REMARKS
NORFOLK        CLOUDY    64  56  75 NW14      29.80R
COLUMBUS *     CLOUDY   N/A N/A N/A MISG        N/A
TEKAMAH        LGT RAIN  63  58  83 S22       29.79R
$$

NEZ050>053-065>068-078-088>093-260500-
SOUTHEAST NEBRASKA

CITY           SKY/WX    TMP DP  RH WIND       PRES   REMARKS
LINCOLN        CLOUDY    64  57  78 SE10      29.80S
OMAHA EPPLEY   CLOUDY    66  59  78 W6        29.83R
FALLS CITY     LGT RAIN  61  58  90 SE12      29.83R
$$

NEZ044-045-051>053-067-260500-
OMAHA AREA

CITY           SKY/WX    TMP DP  RH WIND       PRES   REMARKS
OMAHA EPPLEY   CLOUDY    66  59  78 W6        29.83R
OFFUTT AFB     CLOUDY    63  60  91 W1        29.81R
$$



USA.gov is the U.S. government's official web portal to all federal, state and local government web resources and services.